Flag for Austria Weather past 2 weeks in Leoben, Styria, Austria

Now
70 °F

Scattered clouds.


Feels Like: 70 °F
Forecast: 46 / 69 °F
Wind: 6 mph from Southeast

Location: Zeltweg

Current Time: May 29, 2015 at 5:22:47 PM

Latest Report: May 29, 2015 at 4:50 PM


Visibility: 31 mi

Pressure: 29.89 "Hg

Humidity: 35%

Dew point: 41 °F

Location of LeobenLocation

Historic Weather in Leoben — Graph

°F

Leoben temperature yesterday

Maximum temperature yesterday: 68 °F (at 3:50 PM)
Minimum temperature yesterday: 37 °F (at 5:50 AM)
Average temperature yesterday: 57 °F

Past Weeks' High & Low Weather Summary

 TemperatureHumidityPressure
High73 °F (May 29, 1:50 PM)100% (May 15, 10:50 PM)30.24 "Hg (May 15, 10:50 PM)
Low37 °F (May 28, 5:50 AM)22% (May 29, 2:20 PM)29.77 "Hg (May 19, 5:20 PM)
Average56 °F67%29.99 "Hg
* Reported May 14 3:50 PM — May 29 3:50 PM, Leoben, Weather by CustomWeather, © 2015

Note: Actual official high and low records may vary slightly from our data, if they occured in-between our weather recording intervals... More about our weather records

Advertising

Leoben weather history for previous 24 hours

 ConditionsComfort  
Time TempWeatherWind HumidityBarometerVisibility
3:50 PM
Fri, May 29
73 °FScattered clouds.9 mph25%29.92 "Hg31 mi
3:20 PM73 °FScattered clouds.10 mph27%29.92 "Hg31 mi
2:50 PM73 °FScattered clouds.10 mph23%29.92 "Hg31 mi
2:20 PM73 °FScattered clouds.9 mph22%29.95 "Hg31 mi
1:50 PM73 °FScattered clouds.6 mph25%29.95 "Hg31 mi
1:20 PM72 °FScattered clouds.5 mph25%29.95 "Hg31 mi
12:50 PM70 °FScattered clouds.2 mph29%29.98 "Hg31 mi
12:20 PM70 °FScattered clouds.2 mph29%29.98 "Hg31 mi
11:50 AM66 °FScattered clouds.3 mph35%30.01 "Hg31 mi
11:20 AM64 °FScattered clouds.2 mph43%30.01 "Hg31 mi
10:50 AM63 °FScattered clouds.2 mph49%30.01 "Hg31 mi
10:20 AM59 °FPartly sunny.2 mph48%30.04 "Hg31 mi
9:50 AM57 °FPartly sunny.2 mph51%30.04 "Hg31 mi
9:20 AM54 °FPartly sunny.2 mph58%30.04 "Hg31 mi
8:50 AM52 °FPartly sunny.1 mph62%30.07 "Hg31 mi
8:20 AM48 °FPartly sunny.1 mph71%30.07 "Hg31 mi
7:50 AM46 °FPartly sunny.1 mph76%30.07 "Hg31 mi
7:20 AM45 °FPartly sunny.1 mph81%30.07 "Hg31 mi
6:50 AM43 °FPartly sunny.No wind81%30.07 "Hg31 mi
5:50 AM39 °FPassing clouds.No wind100%30.07 "Hg25 mi
10:50 PM
Thu, May 28
54 °FClear.5 mph63%30.01 "Hg12 mi
9:50 PM54 °FClear.5 mph63%30.01 "Hg12 mi
8:50 PM57 °FPassing clouds.5 mph55%30.01 "Hg25 mi
7:50 PM63 °FPassing clouds.7 mph42%29.98 "Hg31 mi
6:50 PM68 °FPassing clouds.5 mph26%29.98 "Hg31 mi
5:50 PM68 °FPassing clouds.9 mph28%29.98 "Hg31 mi
Weather by CustomWeather, © 2015

See weather overviewHow to use our weather pages